Tracking 19490 objects as of 24-Jan-2019
HD Live streaming from Space Station
objects crossing your sky now

FENGYUN 1C DEB

Track FENGYUN 1C DEB now!
10-day predictions


NORAD ID: 30483
Int'l Code: 1999-025AGV
Perigee: 513.8 km
Apogee: 653.4 km
Inclination: 99.0 °
Period: 96.2 minutes
Semi major axis: 6954 km
RCS: 0.0087 m2 (small)
Launch date: May 10, 1999
Source: People's Republic of China (PRC)
Launch site: Taiyaun Space Center, China (TSC)

Note: This is SATELLITE DEBRIS
aabbcc
Your satellite tracking list
Your tracking list is empty




NASA's NSSDC Master Catalog

Two Line Element Set (TLE):
1 30483U 99025AGV 19024.09798833  .00004407  00000-0  35302-3 0  9997
2 30483  98.9696  82.0609 0100378 185.0218 175.0002 14.96898786639049
Source of the keplerian elements: AFSPC